Regional Weather Roundup
Issued by NWS Jackson, KY

Home | Current Version | Previous Version | Graphics & Text | Print | Product List | Glossary On
Versions: 1 2 3 4 5 6 7 8 9 10 11 12 13 14 15 16 17 18 19 20 21 22 23 24 25 26 27 28 29 30 31 32 33 34 35 36 37 38 39 40 41 42 43 44 45 46 47 48 49 50
000
ASUS43 KJKL 281910
RWRJKL

EAST KENTUCKY HOURLY WEATHER ROUNDUP
NATIONAL WEATHER SERVICE JACKSON KY
300 PM EDT THU MAY 28 2015

NOTE: "FAIR" INDICATES FEW OR NO CLOUDS BELOW 12,000 FEET WITH
NO SIGNIFICANT WEATHER AND/OR OBSTRUCTIONS TO VISIBILITY.

* THESE REPORTS ARE NOT UNDER NWS QUALITY CONTROL AND MAY NOT
  REPORT WEATHER SUCH AS PRECIPITATION AND FOG.

KYZ079-080-083-085-087-088-110-112-115-119-120-282000
...EASTERN KENTUCKY...

CITY           SKY/WX    TMP DP  RH WIND       PRES   REMARKS
JACKSON        CLOUDY    78  65  63 CALM      30.23F
LONDON         LGT RAIN  75  63  66 CALM      30.23F
SOMERSET*      CLOUDY    72  66  83 CALM      30.23F
MONTICELLO*    CLOUDY    76  68  76 VRB3      30.24F
MIDDLESBORO*   LGT RAIN  75  68  78 E5        30.23F
HARLAN APT*    MOCLDY    79  61  53 CALM      30.23F
HAZARD APT*    PTCLDY    82  64  54 CALM      30.22F
BLACK MTN*       N/A     66  63  88 NE1         N/A
PIKEVILLE APT* SUNNY     77  64  65 CALM      30.24F
BIG SANDY*     MOCLDY    81  64  56 S3        30.23F
MOREHEAD APT*  MOCLDY    79  64  61 S6        30.23F
$$

KYZ035-036-041-042-044-050-067-078-099-282000
...CENTRAL KENTUCKY...

CITY           SKY/WX    TMP DP  RH WIND       PRES   REMARKS
MT STERLING*   PTSUNNY   79  66  65 SW8       30.23F
FLEMING/MASON* PTSUNNY   79  66  65 S7        30.22F
DANVILLE*      PTSUNNY   77  64  65 S3        30.23S
RICHMOND*      PTSUNNY   75  63  64 S6        30.22F
LEXINGTON      PTSUNNY   78  67  68 S3        30.21F
FRANKFORT        N/A     79  65  62 VRB3      30.19F
$$

KYZ091>093-OHZ055-061-077-WVZ005-015-034-035-042-282000
...SOUTHERN OHIO/WEST VIRGINIA...

CITY           SKY/WX    TMP DP  RH WIND       PRES   REMARKS
COVINGTON      MOSUNNY   79  65  62 VRB6      30.20F
COLUMBUS       PTSUNNY   81  61  50 CALM      30.21F
DAYTON         MOSUNNY   81  63  54 S3        30.20F
WILMINGTON     MOSUNNY   80  62  54 SE8       30.19F
HUNTINGTON     PTSUNNY   81  63  54 NE3       30.20F
CHARLESTON     PTSUNNY   83  62  49 VRB3      30.21F
PINEVILLE*     PTSUNNY   80  67  62 MISG      30.30F
BECKLEY        PTSUNNY   79  60  52 NW8       30.28F
BLUEFIELD      CLOUDY    82  59  45 VRB3      30.30F
$$

VAZ002-007-008-TNZ017-027-036-066-071-282000
...SOUTHWEST VIRGINIA/EAST TENNESSEE...

CITY           SKY/WX    TMP DP  RH WIND       PRES   REMARKS
WISE*          PTSUNNY   77  61  57 N6        30.30F
JONESVILLE*    LGT RAIN  70  66  88 CALM      30.25S
ABINGDON*      MOSUNNY   86  58  39 SE3       30.23F
BRISTOL        PTSUNNY   86  58  38 N5        30.20F
KNOXVILLE      CLOUDY    77  65  66 W8        30.20F
OAK RIDGE      CLOUDY    81  66  60 CALM      30.21F
CROSSVILLE     PTSUNNY   74  61  63 VRB3      30.24F
NASHVILLE      PTSUNNY   82  63  52 CALM      30.18F
$$

...KEY TO REMARKS...
VSB - VISIBILITY IN MILES
WCI - WIND CHILL INDEX
HX  - HEAT INDEX

$$



USA.gov is the U.S. government's official web portal to all federal, state and local government web resources and services.